Darstellungsparameter: Aktuell verwendete Einstellungen:
Skalierung der Graphiken ... ?
xyx+y,   Skalierungsfaktor:      Skalierung: Modus: x, Faktor: 1
Darstellungszeitraum ... ?
Vom - - bis: - -   Zeitraum: 27.06.2020 - 28.06.2020
Min/Max/Avg-Anzeige ... ?
Zeige MMA aktuell
Zeige MMA Monat
Zeige MMA alles
Zeige --A aktuell
Zeige --A Monat
Zeige --A alles
Keine MMA-Anzeige
MMA:
Average (ber die Originaldaten)
MMA-Basis: 27.06.2020 - 28.06.2020
Quicknavigation für Darstellung... ?
Tage:      1T, 2T, 3T, 5T -1T -2T -3T -5T +1T +2T +3T +5T
Wochen: 1W, 2W, 3W -1W -2W -3W +1W +2W +3W
Monate: 1M, 3M, 6M -1M -3M -6M +1M +3M +6M
Jahre:    1J, 3J, 5J, 10J -1J -3J -5J -10J +1J +3J +5J +10J
Nutze für die Darstellung ... ?
Originaldaten oder Mittelwerte auf ...
Stundenbasis Tagesbasis Wochenbasis
Monatsbasis Jahresbasis      Datenbasis: Original-Daten
Darstellen als:
Statistik (Auto) Statistik J:M      Darstellung:
Zur Graphik,    zurück zur Übersicht aller Sensoren.
 
Tabellarische Datenbersicht: ?
 
Sensor: Nr:Datum:Temp:Abs-Feuchte:Windchill:Wind:
Aussen-T/F 1 27-06-2020 00:00:00 20.3 C 14.25 g/m*3 20.3 C 3.2 km/h
2 27-06-2020 00:05:00 20.4 C 14.33 g/m*3 20.4 C 9.7 km/h
3 27-06-2020 00:10:00 20.4 C 14.33 g/m*3 20.4 C 9.7 km/h
4 27-06-2020 00:15:00 20.4 C 14.33 g/m*3 20.4 C 4.8 km/h
5 27-06-2020 00:20:00 20.4 C 14.15 g/m*3 20.4 C 9.7 km/h
6 27-06-2020 00:25:00 20.5 C 14.23 g/m*3 20.5 C 9.7 km/h
7 27-06-2020 00:30:00 20.5 C 14.23 g/m*3 20.5 C 8.1 km/h
8 27-06-2020 00:35:00 20.4 C 14.15 g/m*3 20.4 C 1.6 km/h
9 27-06-2020 00:40:00 20.4 C 14.33 g/m*3 20.4 C 9.7 km/h
10 27-06-2020 00:45:00 20.3 C 14.42 g/m*3 20.3 C 4.8 km/h
11 27-06-2020 00:50:00 20.2 C 14.34 g/m*3 20.2 C 8.1 km/h
12 27-06-2020 00:55:00 20.1 C 14.25 g/m*3 20.1 C 3.2 km/h
13 27-06-2020 01:00:00 20 C 14.17 g/m*3 20 C 1.6 km/h
14 27-06-2020 01:05:00 19.9 C 14.09 g/m*3 19.9 C 0 km/h
15 27-06-2020 01:10:00 19.8 C 14.01 g/m*3 19.8 C 3.2 km/h
16 27-06-2020 01:15:00 19.8 C 14.18 g/m*3 19.8 C 0 km/h
17 27-06-2020 01:20:00 19.7 C 14.09 g/m*3 19.7 C 0 km/h
18 27-06-2020 01:25:00 19.5 C 13.93 g/m*3 19.5 C 0 km/h
19 27-06-2020 01:30:00 19.3 C 13.77 g/m*3 19.3 C 0 km/h
20 27-06-2020 01:35:00 19.2 C 13.85 g/m*3 19.2 C 0 km/h
21 27-06-2020 01:40:00 19 C 13.69 g/m*3 19 C 1.6 km/h
22 27-06-2020 01:45:00 18.9 C 13.77 g/m*3 18.9 C 0 km/h
23 27-06-2020 01:50:00 18.8 C 13.69 g/m*3 18.8 C 0 km/h
24 27-06-2020 01:55:00 18.8 C 13.85 g/m*3 18.8 C 0 km/h
25 27-06-2020 02:00:00 18.7 C 13.77 g/m*3 18.7 C 0 km/h
Sensor: Nr:Datum:Temp:Abs-Feuchte:Windchill:Wind:
Aussen-T/F 26 27-06-2020 02:05:00 18.6 C 13.69 g/m*3 18.6 C 0 km/h
27 27-06-2020 02:10:00 18.5 C 13.61 g/m*3 18.5 C 0 km/h
28 27-06-2020 02:15:00 18.4 C 13.53 g/m*3 18.4 C 1.6 km/h
29 27-06-2020 02:20:00 18.3 C 13.6 g/m*3 18.3 C 0 km/h
30 27-06-2020 02:25:00 18.2 C 13.52 g/m*3 18.2 C 0 km/h
31 27-06-2020 02:30:00 18.2 C 13.68 g/m*3 18.2 C 0 km/h
32 27-06-2020 02:35:00 18.2 C 13.68 g/m*3 18.2 C 0 km/h
33 27-06-2020 02:40:00 18.1 C 13.6 g/m*3 18.1 C 0 km/h
34 27-06-2020 02:45:00 18.1 C 13.6 g/m*3 18.1 C 0 km/h
35 27-06-2020 02:50:00 18.1 C 13.6 g/m*3 18.1 C 3.2 km/h
36 27-06-2020 02:55:00 18.1 C 13.75 g/m*3 18.1 C 0 km/h
37 27-06-2020 03:00:00 18.1 C 13.75 g/m*3 18.1 C 0 km/h
38 27-06-2020 03:05:00 18.2 C 13.83 g/m*3 18.2 C 0 km/h
39 27-06-2020 03:10:00 18.2 C 13.83 g/m*3 18.2 C 0 km/h
40 27-06-2020 03:15:00 18.2 C 13.99 g/m*3 18.2 C 0 km/h
41 27-06-2020 03:20:00 18.3 C 14.07 g/m*3 18.3 C 0 km/h
42 27-06-2020 03:25:00 18.3 C 13.92 g/m*3 18.3 C 0 km/h
43 27-06-2020 03:30:00 18.3 C 13.92 g/m*3 18.3 C 0 km/h
44 27-06-2020 03:35:00 18.3 C 13.92 g/m*3 18.3 C 0 km/h
45 27-06-2020 03:40:00 18.4 C 14 g/m*3 18.4 C 0 km/h
46 27-06-2020 03:45:00 18.4 C 14 g/m*3 18.4 C 1.6 km/h
47 27-06-2020 03:50:00 18.4 C 14.16 g/m*3 18.4 C 0 km/h
48 27-06-2020 03:55:00 18.4 C 14.16 g/m*3 18.4 C 0 km/h
49 27-06-2020 04:00:00 18.4 C 14 g/m*3 18.4 C 0 km/h
50 27-06-2020 04:05:00 18.4 C 14 g/m*3 18.4 C 0 km/h
Sensor: Nr:Datum:Temp:Abs-Feuchte:Windchill:Wind:
Aussen-T/F 51 27-06-2020 04:10:00 18.3 C 13.92 g/m*3 18.3 C 0 km/h
52 27-06-2020 04:15:00 18.3 C 13.92 g/m*3 18.3 C 0 km/h
53 27-06-2020 04:20:00 18.3 C 13.92 g/m*3 18.3 C 0 km/h
54 27-06-2020 04:25:00 18.2 C 13.83 g/m*3 18.2 C 0 km/h
55 27-06-2020 04:30:00 18.1 C 13.75 g/m*3 18.1 C 0 km/h
56 27-06-2020 04:35:00 18.1 C 13.75 g/m*3 18.1 C 0 km/h
57 27-06-2020 04:40:00 18 C 13.82 g/m*3 18 C 0 km/h
58 27-06-2020 04:45:00 17.9 C 13.74 g/m*3 17.9 C 0 km/h
59 27-06-2020 04:50:00 17.8 C 13.66 g/m*3 17.8 C 3.2 km/h
60 27-06-2020 04:55:00 17.8 C 13.66 g/m*3 17.8 C 1.6 km/h
61 27-06-2020 05:00:00 17.7 C 13.58 g/m*3 17.7 C 0 km/h
62 27-06-2020 05:05:00 17.6 C 13.5 g/m*3 17.6 C 0 km/h
63 27-06-2020 05:10:00 17.5 C 13.57 g/m*3 17.5 C 0 km/h
64 27-06-2020 05:15:00 17.4 C 13.49 g/m*3 17.4 C 0 km/h
65 27-06-2020 05:20:00 17.4 C 13.49 g/m*3 17.4 C 0 km/h
66 27-06-2020 05:25:00 17.3 C 13.41 g/m*3 17.3 C 0 km/h
67 27-06-2020 05:30:00 17.3 C 13.55 g/m*3 17.3 C 0 km/h
68 27-06-2020 05:35:00 17.4 C 13.63 g/m*3 17.4 C 0 km/h
69 27-06-2020 05:40:00 17.4 C 13.63 g/m*3 17.4 C 0 km/h
70 27-06-2020 05:45:00 17.4 C 13.63 g/m*3 17.4 C 1.6 km/h
71 27-06-2020 05:50:00 17.6 C 13.95 g/m*3 17.6 C 1.6 km/h
72 27-06-2020 05:55:00 17.6 C 13.95 g/m*3 17.6 C 3.2 km/h
73 27-06-2020 06:00:00 17.7 C 14.03 g/m*3 17.7 C 0 km/h
74 27-06-2020 06:05:00 17.7 C 14.03 g/m*3 17.7 C 0 km/h
75 27-06-2020 06:10:00 17.8 C 14.12 g/m*3 17.8 C 4.8 km/h
Sensor: Nr:Datum:Temp:Abs-Feuchte:Windchill:Wind:
Aussen-T/F 76 27-06-2020 06:15:00 17.9 C 14.2 g/m*3 17.9 C 3.2 km/h
77 27-06-2020 06:20:00 18.1 C 14.21 g/m*3 18.1 C 3.2 km/h
78 27-06-2020 06:25:00 18.2 C 14.3 g/m*3 18.2 C 1.6 km/h
79 27-06-2020 06:30:00 18.3 C 14.38 g/m*3 18.3 C 1.6 km/h
80 27-06-2020 06:35:00 18.4 C 14.31 g/m*3 18.4 C 3.2 km/h
81 27-06-2020 06:40:00 18.6 C 14.48 g/m*3 18.6 C 3.2 km/h
82 27-06-2020 06:45:00 18.7 C 14.57 g/m*3 18.7 C 3.2 km/h
83 27-06-2020 06:50:00 18.7 C 14.57 g/m*3 18.7 C 0 km/h
84 27-06-2020 06:55:00 18.8 C 14.49 g/m*3 18.8 C 3.2 km/h
85 27-06-2020 07:00:00 18.9 C 14.58 g/m*3 18.9 C 1.6 km/h
86 27-06-2020 07:05:00 19 C 14.67 g/m*3 19 C 0 km/h
87 27-06-2020 07:10:00 19.1 C 14.75 g/m*3 19.1 C 0 km/h
88 27-06-2020 07:15:00 19.2 C 14.68 g/m*3 19.2 C 0 km/h
89 27-06-2020 07:20:00 19.3 C 14.93 g/m*3 19.3 C 0 km/h
90 27-06-2020 07:25:00 19.6 C 15.02 g/m*3 19.6 C 8.1 km/h
91 27-06-2020 07:30:00 19.8 C 15.03 g/m*3 19.8 C 9.7 km/h
92 27-06-2020 07:35:00 20 C 15.04 g/m*3 20 C 6.4 km/h
93 27-06-2020 07:40:00 20.2 C 15.04 g/m*3 20.2 C 11.3 km/h
94 27-06-2020 07:45:00 20.3 C 15.13 g/m*3 20.3 C 9.7 km/h
95 27-06-2020 07:50:00 20.4 C 14.86 g/m*3 20.4 C 16.1 km/h
96 27-06-2020 07:55:00 20.4 C 14.86 g/m*3 20.4 C 14.5 km/h
97 27-06-2020 08:00:00 20.5 C 14.77 g/m*3 20.5 C 17.7 km/h
98 27-06-2020 08:05:00 20.5 C 14.77 g/m*3 20.5 C 17.7 km/h
99 27-06-2020 08:10:00 20.6 C 14.86 g/m*3 20.6 C 12.9 km/h
100 27-06-2020 08:15:00 20.6 C 14.68 g/m*3 20.6 C 12.9 km/h
Sensor: Nr:Datum:Temp:Abs-Feuchte:Windchill:Wind:
Aussen-T/F 101 27-06-2020 08:20:00 20.7 C 14.94 g/m*3 20.7 C 9.7 km/h
102 27-06-2020 08:25:00 20.8 C 14.85 g/m*3 20.8 C 17.7 km/h
103 27-06-2020 08:30:00 21.1 C 14.92 g/m*3 21.1 C 16.1 km/h
104 27-06-2020 08:35:00 21.3 C 14.91 g/m*3 21.3 C 14.5 km/h
105 27-06-2020 08:40:00 21.4 C 15 g/m*3 21.4 C 12.9 km/h
106 27-06-2020 08:45:00 21.5 C 14.9 g/m*3 21.5 C 9.7 km/h
107 27-06-2020 08:50:00 21.5 C 14.71 g/m*3 21.5 C 14.5 km/h
108 27-06-2020 08:55:00 21.5 C 14.71 g/m*3 21.5 C 9.7 km/h
109 27-06-2020 09:00:00 21.4 C 14.62 g/m*3 21.4 C 0 km/h
110 27-06-2020 09:05:00 21.4 C 14.81 g/m*3 21.4 C 4.8 km/h
111 27-06-2020 09:10:00 21.4 C 14.62 g/m*3 21.4 C 4.8 km/h
112 27-06-2020 09:15:00 21.4 C 14.81 g/m*3 21.4 C 3.2 km/h
113 27-06-2020 09:20:00 21.5 C 15.09 g/m*3 21.5 C 3.2 km/h
114 27-06-2020 09:25:00 21.6 C 14.98 g/m*3 21.6 C 6.4 km/h
115 27-06-2020 09:30:00 21.7 C 14.88 g/m*3 21.7 C 4.8 km/h
116 27-06-2020 09:35:00 21.8 C 14.77 g/m*3 21.8 C 4.8 km/h
117 27-06-2020 09:40:00 21.9 C 14.67 g/m*3 21.9 C 1.6 km/h
118 27-06-2020 09:45:00 22 C 14.75 g/m*3 22 C 4.8 km/h
119 27-06-2020 09:50:00 22.1 C 14.64 g/m*3 22.1 C 8.1 km/h
120 27-06-2020 09:55:00 22.2 C 14.72 g/m*3 22.2 C 8.1 km/h
121 27-06-2020 10:00:00 22.4 C 14.89 g/m*3 22.4 C 9.7 km/h
122 27-06-2020 10:05:00 22.6 C 14.87 g/m*3 22.6 C 9.7 km/h
123 27-06-2020 10:10:00 22.7 C 14.95 g/m*3 22.7 C 1.6 km/h
124 27-06-2020 10:15:00 22.8 C 15.24 g/m*3 22.8 C 3.2 km/h
125 27-06-2020 10:20:00 22.9 C 14.51 g/m*3 22.9 C 6.4 km/h
Sensor: Nr:Datum:Temp:Abs-Feuchte:Windchill:Wind:
Aussen-T/F 126 27-06-2020 10:25:00 22.9 C 14.71 g/m*3 22.9 C 9.7 km/h
127 27-06-2020 10:30:00 23 C 14.59 g/m*3 23 C 6.4 km/h
128 27-06-2020 10:35:00 23.1 C 14.68 g/m*3 23.1 C 12.9 km/h
129 27-06-2020 10:40:00 23.2 C 14.55 g/m*3 23.2 C 8.1 km/h
130 27-06-2020 10:45:00 23.3 C 14.64 g/m*3 23.3 C 8.1 km/h
131 27-06-2020 10:50:00 23.5 C 14.8 g/m*3 23.5 C 14.5 km/h
132 27-06-2020 10:55:00 23.6 C 14.46 g/m*3 23.6 C 11.3 km/h
133 27-06-2020 11:00:00 23.6 C 14.68 g/m*3 23.6 C 9.7 km/h
134 27-06-2020 11:05:00 23.6 C 14.68 g/m*3 23.6 C 11.3 km/h
135 27-06-2020 11:10:00 23.5 C 14.59 g/m*3 23.5 C 8.1 km/h
136 27-06-2020 11:15:00 23.4 C 14.72 g/m*3 23.4 C 3.2 km/h
137 27-06-2020 11:20:00 23.3 C 14.64 g/m*3 23.3 C 8.1 km/h
138 27-06-2020 11:25:00 23.1 C 14.68 g/m*3 23.1 C 6.4 km/h
139 27-06-2020 11:30:00 22.9 C 14.51 g/m*3 22.9 C 6.4 km/h
140 27-06-2020 11:35:00 22.9 C 14.51 g/m*3 22.9 C 8.1 km/h
141 27-06-2020 11:40:00 22.8 C 14.63 g/m*3 22.8 C 9.7 km/h
142 27-06-2020 11:45:00 22.7 C 14.55 g/m*3 22.7 C 9.7 km/h
143 27-06-2020 11:50:00 22.7 C 14.55 g/m*3 22.7 C 4.8 km/h
144 27-06-2020 11:55:00 22.6 C 14.66 g/m*3 22.6 C 8.1 km/h
145 27-06-2020 12:00:00 22.5 C 14.58 g/m*3 22.5 C 4.8 km/h
146 27-06-2020 12:05:00 22.4 C 14.7 g/m*3 22.4 C 11.3 km/h
147 27-06-2020 12:10:00 22.3 C 14.61 g/m*3 22.3 C 6.4 km/h
148 27-06-2020 12:15:00 22.2 C 14.72 g/m*3 22.2 C 3.2 km/h
149 27-06-2020 12:20:00 22.2 C 14.72 g/m*3 22.2 C 6.4 km/h
150 27-06-2020 12:25:00 22.3 C 15.01 g/m*3 22.3 C 4.8 km/h
Sensor: Nr:Datum:Temp:Abs-Feuchte:Windchill:Wind:
Aussen-T/F 151 27-06-2020 12:30:00 22.5 C 14.98 g/m*3 22.5 C 6.4 km/h
152 27-06-2020 12:35:00 22.7 C 15.36 g/m*3 22.7 C 4.8 km/h
153 27-06-2020 12:40:00 22.8 C 15.24 g/m*3 22.8 C 3.2 km/h
154 27-06-2020 12:45:00 22.9 C 15.33 g/m*3 22.9 C 4.8 km/h
155 27-06-2020 12:50:00 22.9 C 15.33 g/m*3 22.9 C 6.4 km/h
156 27-06-2020 12:55:00 23 C 15.42 g/m*3 23 C 8.1 km/h
157 27-06-2020 13:00:00 23 C 15.42 g/m*3 23 C 11.3 km/h
158 27-06-2020 13:05:00 23 C 15.62 g/m*3 23 C 6.4 km/h
159 27-06-2020 13:10:00 22.9 C 15.33 g/m*3 22.9 C 11.3 km/h
160 27-06-2020 13:15:00 22.9 C 15.33 g/m*3 22.9 C 3.2 km/h
161 27-06-2020 13:20:00 22.9 C 15.53 g/m*3 22.9 C 4.8 km/h
162 27-06-2020 13:25:00 22.9 C 15.33 g/m*3 22.9 C 4.8 km/h
163 27-06-2020 13:30:00 22.9 C 15.53 g/m*3 22.9 C 3.2 km/h
164 27-06-2020 13:35:00 23 C 15.42 g/m*3 23 C 4.8 km/h
165 27-06-2020 13:40:00 23.1 C 15.71 g/m*3 23.1 C 3.2 km/h
166 27-06-2020 13:45:00 23.2 C 15.8 g/m*3 23.2 C 0 km/h
167 27-06-2020 13:50:00 23.4 C 15.77 g/m*3 23.4 C 4.8 km/h
168 27-06-2020 13:55:00 23.7 C 15.83 g/m*3 23.7 C 11.3 km/h
169 27-06-2020 14:00:00 23.9 C 15.79 g/m*3 23.9 C 8.1 km/h
170 27-06-2020 14:05:00 24.2 C 15.62 g/m*3 24.2 C 14.5 km/h
171 27-06-2020 14:10:00 24.6 C 15.53 g/m*3 24.6 C 16.1 km/h
172 27-06-2020 14:15:00 24.7 C 15.62 g/m*3 24.7 C 12.9 km/h
173 27-06-2020 14:20:00 24.9 C 15.57 g/m*3 24.9 C 14.5 km/h
174 27-06-2020 14:25:00 25 C 15.19 g/m*3 25 C 12.9 km/h
175 27-06-2020 14:30:00 25.4 C 14.83 g/m*3 25.4 C 19.3 km/h
Sensor: Nr:Datum:Temp:Abs-Feuchte:Windchill:Wind:
Aussen-T/F 176 27-06-2020 14:35:00 25.8 C 14.93 g/m*3 25.8 C 19.3 km/h
177 27-06-2020 14:40:00 26.2 C 14.77 g/m*3 26.2 C 19.3 km/h
178 27-06-2020 14:45:00 26.4 C 14.69 g/m*3 26.4 C 14.5 km/h
179 27-06-2020 14:50:00 26.7 C 14.68 g/m*3 26.7 C 14.5 km/h
180 27-06-2020 14:55:00 26.8 C 14.51 g/m*3 26.8 C 24.1 km/h
181 27-06-2020 15:00:00 27.1 C 14.75 g/m*3 27.1 C 24.1 km/h
182 27-06-2020 15:05:00 27.3 C 14.65 g/m*3 27.3 C 22.5 km/h
183 27-06-2020 15:10:00 27.5 C 14.29 g/m*3 27.5 C 20.9 km/h
184 27-06-2020 15:15:00 27.7 C 14.44 g/m*3 27.7 C 14.5 km/h
185 27-06-2020 15:20:00 27.7 C 14.18 g/m*3 27.7 C 14.5 km/h
186 27-06-2020 15:25:00 27.6 C 14.1 g/m*3 27.6 C 24.1 km/h
187 27-06-2020 15:30:00 27.7 C 14.71 g/m*3 27.7 C 17.7 km/h
188 27-06-2020 15:35:00 28.2 C 14.3 g/m*3 28.2 C 17.7 km/h
189 27-06-2020 15:40:00 28.3 C 14.38 g/m*3 28.3 C 17.7 km/h
190 27-06-2020 15:45:00 28.4 C 14.18 g/m*3 28.4 C 19.3 km/h
191 27-06-2020 15:50:00 28.2 C 14.02 g/m*3 28.2 C 17.7 km/h
192 27-06-2020 15:55:00 28.3 C 14.1 g/m*3 28.3 C 19.3 km/h
193 27-06-2020 16:00:00 28.5 C 14.25 g/m*3 28.5 C 20.9 km/h
194 27-06-2020 16:05:00 28.6 C 14.61 g/m*3 28.6 C 16.1 km/h
195 27-06-2020 16:10:00 28.6 C 14.61 g/m*3 28.6 C 17.7 km/h
196 27-06-2020 16:15:00 28.5 C 14.53 g/m*3 28.5 C 16.1 km/h
197 27-06-2020 16:20:00 28.7 C 14.69 g/m*3 28.7 C 19.3 km/h
198 27-06-2020 16:25:00 28.9 C 14.57 g/m*3 28.9 C 17.7 km/h
199 27-06-2020 16:30:00 29.1 C 14.73 g/m*3 29.1 C 16.1 km/h
200 27-06-2020 16:35:00 29.1 C 14.73 g/m*3 29.1 C 17.7 km/h
Sensor: Nr:Datum:Temp:Abs-Feuchte:Windchill:Wind:
Aussen-T/F 201 27-06-2020 16:40:00 29.1 C 14.73 g/m*3 29.1 C 20.9 km/h
202 27-06-2020 16:45:00 28.9 C 14.57 g/m*3 28.9 C 17.7 km/h
203 27-06-2020 16:50:00 29.1 C 14.73 g/m*3 29.1 C 17.7 km/h
204 27-06-2020 16:55:00 29.4 C 14.68 g/m*3 29.4 C 17.7 km/h
205 27-06-2020 17:00:00 29.6 C 15.43 g/m*3 29.6 C 16.1 km/h
206 27-06-2020 17:05:00 29.8 C 14.4 g/m*3 29.8 C 20.9 km/h
207 27-06-2020 17:10:00 29.8 C 14.7 g/m*3 29.8 C 9.7 km/h
208 27-06-2020 17:15:00 29.3 C 14.31 g/m*3 29.3 C 20.9 km/h
209 27-06-2020 17:20:00 28.5 C 14.25 g/m*3 28.5 C 16.1 km/h
210 27-06-2020 17:25:00 28.6 C 14.33 g/m*3 28.6 C 9.7 km/h
211 27-06-2020 17:30:00 28.7 C 14.41 g/m*3 28.7 C 12.9 km/h
212 27-06-2020 17:35:00 28.9 C 14.57 g/m*3 28.9 C 17.7 km/h
213 27-06-2020 17:40:00 29.1 C 14.44 g/m*3 29.1 C 17.7 km/h
214 27-06-2020 17:45:00 28.5 C 14.25 g/m*3 28.5 C 16.1 km/h
215 27-06-2020 17:50:00 28.1 C 14.22 g/m*3 28.1 C 14.5 km/h
216 27-06-2020 17:55:00 27.8 C 13.72 g/m*3 27.8 C 14.5 km/h
217 27-06-2020 18:00:00 27.6 C 13.83 g/m*3 27.6 C 9.7 km/h
218 27-06-2020 18:05:00 27.2 C 13.79 g/m*3 27.2 C 19.3 km/h
219 27-06-2020 18:10:00 27.1 C 13.97 g/m*3 27.1 C 12.9 km/h
220 27-06-2020 18:15:00 27.3 C 14.39 g/m*3 27.3 C 12.9 km/h
221 27-06-2020 18:20:00 28 C 14.14 g/m*3 28 C 12.9 km/h
222 27-06-2020 18:25:00 28.5 C 13.7 g/m*3 28.5 C 14.5 km/h
223 27-06-2020 18:30:00 28.3 C 14.1 g/m*3 28.3 C 16.1 km/h
224 27-06-2020 18:35:00 28.3 C 14.38 g/m*3 28.3 C 6.4 km/h
225 27-06-2020 18:40:00 28.3 C 14.1 g/m*3 28.3 C 9.7 km/h
Sensor: Nr:Datum:Temp:Abs-Feuchte:Windchill:Wind:
Aussen-T/F 226 27-06-2020 18:45:00 28.6 C 14.33 g/m*3 28.6 C 11.3 km/h
227 27-06-2020 18:50:00 28.7 C 14.13 g/m*3 28.7 C 22.5 km/h
228 27-06-2020 18:55:00 28.6 C 14.05 g/m*3 28.6 C 12.9 km/h
229 27-06-2020 19:00:00 28.1 C 14.22 g/m*3 28.1 C 11.3 km/h
230 27-06-2020 19:05:00 27.7 C 13.91 g/m*3 27.7 C 12.9 km/h
231 27-06-2020 19:10:00 27.3 C 13.87 g/m*3 27.3 C 11.3 km/h
232 27-06-2020 19:15:00 27 C 13.64 g/m*3 27 C 14.5 km/h
233 27-06-2020 19:20:00 26.8 C 13.74 g/m*3 26.8 C 9.7 km/h
234 27-06-2020 19:25:00 26.6 C 13.59 g/m*3 26.6 C 12.9 km/h
235 27-06-2020 19:30:00 26.4 C 13.69 g/m*3 26.4 C 12.9 km/h
236 27-06-2020 19:35:00 26.3 C 13.62 g/m*3 26.3 C 11.3 km/h
237 27-06-2020 19:40:00 26.2 C 13.54 g/m*3 26.2 C 12.9 km/h
238 27-06-2020 19:45:00 26.1 C 13.46 g/m*3 26.1 C 11.3 km/h
239 27-06-2020 19:50:00 26.1 C 13.71 g/m*3 26.1 C 6.4 km/h
240 27-06-2020 19:55:00 25.9 C 13.32 g/m*3 25.9 C 9.7 km/h
241 27-06-2020 20:00:00 25.9 C 13.56 g/m*3 25.9 C 4.8 km/h
242 27-06-2020 20:05:00 25.9 C 13.56 g/m*3 25.9 C 3.2 km/h
243 27-06-2020 20:10:00 25.8 C 13.96 g/m*3 25.8 C 8.1 km/h
244 27-06-2020 20:15:00 25.7 C 13.89 g/m*3 25.7 C 8.1 km/h
245 27-06-2020 20:20:00 25.6 C 13.33 g/m*3 25.6 C 16.1 km/h
246 27-06-2020 20:25:00 25.6 C 13.57 g/m*3 25.6 C 9.7 km/h
247 27-06-2020 20:30:00 25.5 C 13.73 g/m*3 25.5 C 6.4 km/h
248 27-06-2020 20:35:00 25.4 C 13.89 g/m*3 25.4 C 8.1 km/h
249 27-06-2020 20:40:00 25.3 C 13.34 g/m*3 25.3 C 9.7 km/h
250 27-06-2020 20:45:00 25.3 C 13.34 g/m*3 25.3 C 11.3 km/h
Sensor: Nr:Datum:Temp:Abs-Feuchte:Windchill:Wind:
Aussen-T/F 251 27-06-2020 20:50:00 25.2 C 13.27 g/m*3 25.2 C 12.9 km/h
252 27-06-2020 20:55:00 25.1 C 13.2 g/m*3 25.1 C 8.1 km/h
253 27-06-2020 21:00:00 25.1 C 13.43 g/m*3 25.1 C 6.4 km/h
254 27-06-2020 21:05:00 24.9 C 13.28 g/m*3 24.9 C 9.7 km/h
255 27-06-2020 21:10:00 24.9 C 13.51 g/m*3 24.9 C 1.6 km/h
256 27-06-2020 21:15:00 24.7 C 13.35 g/m*3 24.7 C 4.8 km/h
257 27-06-2020 21:20:00 24.7 C 13.81 g/m*3 24.7 C 4.8 km/h
258 27-06-2020 21:25:00 24.4 C 13.8 g/m*3 24.4 C 9.7 km/h
259 27-06-2020 21:30:00 24.3 C 13.72 g/m*3 24.3 C 4.8 km/h
260 27-06-2020 21:35:00 24.2 C 13.86 g/m*3 24.2 C 6.4 km/h
261 27-06-2020 21:40:00 24.1 C 13.78 g/m*3 24.1 C 3.2 km/h
262 27-06-2020 21:45:00 23.9 C 13.85 g/m*3 23.9 C 8.1 km/h
263 27-06-2020 21:50:00 23.7 C 13.69 g/m*3 23.7 C 3.2 km/h
264 27-06-2020 21:55:00 23.6 C 13.82 g/m*3 23.6 C 4.8 km/h
265 27-06-2020 22:00:00 23.4 C 13.88 g/m*3 23.4 C 4.8 km/h
266 27-06-2020 22:05:00 23.3 C 13.8 g/m*3 23.3 C 3.2 km/h
267 27-06-2020 22:10:00 23.2 C 13.93 g/m*3 23.2 C 3.2 km/h
268 27-06-2020 22:15:00 23.1 C 13.85 g/m*3 23.1 C 3.2 km/h
269 27-06-2020 22:20:00 22.9 C 13.9 g/m*3 22.9 C 1.6 km/h
270 27-06-2020 22:25:00 22.8 C 13.82 g/m*3 22.8 C 4.8 km/h
271 27-06-2020 22:30:00 22.7 C 13.74 g/m*3 22.7 C 3.2 km/h
272 27-06-2020 22:35:00 22.7 C 13.94 g/m*3 22.7 C 3.2 km/h
273 27-06-2020 22:40:00 22.6 C 13.86 g/m*3 22.6 C 3.2 km/h
274 27-06-2020 22:45:00 22.6 C 14.06 g/m*3 22.6 C 3.2 km/h
275 27-06-2020 22:50:00 22.5 C 14.18 g/m*3 22.5 C 4.8 km/h
Sensor: Nr:Datum:Temp:Abs-Feuchte:Windchill:Wind:
Aussen-T/F 276 27-06-2020 22:55:00 22.4 C 14.1 g/m*3 22.4 C 3.2 km/h
277 27-06-2020 23:00:00 22.2 C 13.94 g/m*3 22.2 C 4.8 km/h
278 27-06-2020 23:05:00 22.1 C 14.05 g/m*3 22.1 C 3.2 km/h
279 27-06-2020 23:10:00 21.9 C 14.09 g/m*3 21.9 C 3.2 km/h
280 27-06-2020 23:15:00 21.8 C 14.01 g/m*3 21.8 C 0 km/h
281 27-06-2020 23:20:00 21.8 C 14.2 g/m*3 21.8 C 0 km/h
282 27-06-2020 23:25:00 21.7 C 14.12 g/m*3 21.7 C 0 km/h
283 27-06-2020 23:30:00 21.6 C 14.22 g/m*3 21.6 C 0 km/h
284 27-06-2020 23:35:00 21.6 C 14.22 g/m*3 21.6 C 0 km/h
285 27-06-2020 23:40:00 21.5 C 14.14 g/m*3 21.5 C 0 km/h
286 27-06-2020 23:45:00 21.5 C 13.95 g/m*3 21.5 C 4.8 km/h
287 27-06-2020 23:50:00 21.6 C 14.22 g/m*3 21.6 C 1.6 km/h
288 27-06-2020 23:55:00 21.6 C 14.22 g/m*3 21.6 C 1.6 km/h
289 28-06-2020 00:00:00 21.6 C 14.22 g/m*3 21.6 C 0 km/h
290 28-06-2020 00:05:00 21.6 C 14.22 g/m*3 21.6 C 3.2 km/h
291 28-06-2020 00:10:00 21.4 C 14.06 g/m*3 21.4 C 3.2 km/h
292 28-06-2020 00:15:00 21.4 C 14.06 g/m*3 21.4 C 0 km/h
293 28-06-2020 00:20:00 21.3 C 14.17 g/m*3 21.3 C 0 km/h
294 28-06-2020 00:25:00 21.2 C 14.08 g/m*3 21.2 C 0 km/h
295 28-06-2020 00:30:00 20.9 C 13.84 g/m*3 20.9 C 0 km/h
296 28-06-2020 00:35:00 20.8 C 13.94 g/m*3 20.8 C 0 km/h
297 28-06-2020 00:40:00 20.6 C 13.96 g/m*3 20.6 C 0 km/h
298 28-06-2020 00:45:00 20.4 C 13.8 g/m*3 20.4 C 0 km/h
299 28-06-2020 00:50:00 20.3 C 13.89 g/m*3 20.3 C 0 km/h
300 28-06-2020 00:55:00 20.2 C 13.81 g/m*3 20.2 C 0 km/h
Sensor: Nr:Datum:Temp:Abs-Feuchte:Windchill:Wind:
Aussen-T/F 301 28-06-2020 01:00:00 20.2 C 13.81 g/m*3 20.2 C 0 km/h
302 28-06-2020 01:05:00 20.2 C 13.99 g/m*3 20.2 C 0 km/h
303 28-06-2020 01:10:00 20.2 C 13.99 g/m*3 20.2 C 0 km/h
304 28-06-2020 01:15:00 20.1 C 13.91 g/m*3 20.1 C 0 km/h
305 28-06-2020 01:20:00 20.1 C 13.91 g/m*3 20.1 C 0 km/h
306 28-06-2020 01:25:00 20.1 C 14.08 g/m*3 20.1 C 0 km/h
307 28-06-2020 01:30:00 20 C 14 g/m*3 20 C 0 km/h
308 28-06-2020 01:35:00 20 C 14 g/m*3 20 C 0 km/h
309 28-06-2020 01:40:00 19.9 C 13.92 g/m*3 19.9 C 0 km/h
310 28-06-2020 01:45:00 19.9 C 13.92 g/m*3 19.9 C 0 km/h
311 28-06-2020 01:50:00 19.9 C 13.92 g/m*3 19.9 C 0 km/h
312 28-06-2020 01:55:00 19.9 C 13.92 g/m*3 19.9 C 0 km/h
313 28-06-2020 02:00:00 19.9 C 13.92 g/m*3 19.9 C 0 km/h
314 28-06-2020 02:05:00 20 C 14 g/m*3 20 C 0 km/h
315 28-06-2020 02:10:00 20.1 C 14.08 g/m*3 20.1 C 0 km/h
316 28-06-2020 02:15:00 20.2 C 13.99 g/m*3 20.2 C 0 km/h
317 28-06-2020 02:20:00 20.3 C 14.07 g/m*3 20.3 C 0 km/h
318 28-06-2020 02:25:00 20.4 C 14.15 g/m*3 20.4 C 0 km/h
319 28-06-2020 02:30:00 20.4 C 13.98 g/m*3 20.4 C 0 km/h
320 28-06-2020 02:35:00 20.5 C 14.06 g/m*3 20.5 C 0 km/h
321 28-06-2020 02:40:00 20.6 C 14.14 g/m*3 20.6 C 0 km/h
322 28-06-2020 02:45:00 20.6 C 14.14 g/m*3 20.6 C 0 km/h
323 28-06-2020 02:50:00 20.7 C 14.76 g/m*3 20.7 C 0 km/h
324 28-06-2020 02:55:00 20.7 C 15.12 g/m*3 20.7 C 4.8 km/h
325 28-06-2020 03:00:00 20.6 C 14.86 g/m*3 20.6 C 11.3 km/h
Sensor: Nr:Datum:Temp:Abs-Feuchte:Windchill:Wind:
Aussen-T/F 326 28-06-2020 03:05:00 20.4 C 14.86 g/m*3 20.4 C 3.2 km/h
327 28-06-2020 03:10:00 20.3 C 14.77 g/m*3 20.3 C 6.4 km/h
328 28-06-2020 03:15:00 20.3 C 14.95 g/m*3 20.3 C 1.6 km/h
329 28-06-2020 03:20:00 20.2 C 14.86 g/m*3 20.2 C 3.2 km/h
330 28-06-2020 03:25:00 20.2 C 15.04 g/m*3 20.2 C 1.6 km/h
331 28-06-2020 03:30:00 20.1 C 14.95 g/m*3 20.1 C 0 km/h
332 28-06-2020 03:35:00 19.9 C 14.95 g/m*3 19.9 C 0 km/h
333 28-06-2020 03:40:00 19.8 C 14.86 g/m*3 19.8 C 1.6 km/h
334 28-06-2020 03:45:00 19.7 C 14.77 g/m*3 19.7 C 3.2 km/h
335 28-06-2020 03:50:00 19.7 C 14.94 g/m*3 19.7 C 3.2 km/h
336 28-06-2020 03:55:00 19.7 C 14.94 g/m*3 19.7 C 0 km/h
337 28-06-2020 04:00:00 19.6 C 14.86 g/m*3 19.6 C 1.6 km/h
338 28-06-2020 04:05:00 19.6 C 14.86 g/m*3 19.6 C 0 km/h
339 28-06-2020 04:10:00 19.5 C 14.94 g/m*3 19.5 C 0 km/h
340 28-06-2020 04:15:00 19.4 C 14.85 g/m*3 19.4 C 0 km/h
341 28-06-2020 04:20:00 19.4 C 14.85 g/m*3 19.4 C 1.6 km/h
342 28-06-2020 04:25:00 19.4 C 14.85 g/m*3 19.4 C 0 km/h
343 28-06-2020 04:30:00 19.3 C 14.76 g/m*3 19.3 C 0 km/h
344 28-06-2020 04:35:00 19.3 C 14.76 g/m*3 19.3 C 1.6 km/h
345 28-06-2020 04:40:00 19.3 C 14.76 g/m*3 19.3 C 0 km/h
346 28-06-2020 04:45:00 19.3 C 14.93 g/m*3 19.3 C 0 km/h
347 28-06-2020 04:50:00 19.2 C 14.84 g/m*3 19.2 C 1.6 km/h
348 28-06-2020 04:55:00 19.2 C 14.84 g/m*3 19.2 C 1.6 km/h
349 28-06-2020 05:00:00 19.2 C 14.84 g/m*3 19.2 C 0 km/h
350 28-06-2020 05:05:00 19.1 C 14.75 g/m*3 19.1 C 0 km/h
Sensor: Nr:Datum:Temp:Abs-Feuchte:Windchill:Wind:
Aussen-T/F 351 28-06-2020 05:10:00 19.1 C 14.75 g/m*3 19.1 C 0 km/h
352 28-06-2020 05:15:00 19.1 C 14.92 g/m*3 19.1 C 0 km/h
353 28-06-2020 05:20:00 19.1 C 14.92 g/m*3 19.1 C 0 km/h
354 28-06-2020 05:25:00 19.1 C 14.75 g/m*3 19.1 C 1.6 km/h
355 28-06-2020 05:30:00 19.1 C 14.75 g/m*3 19.1 C 4.8 km/h
356 28-06-2020 05:35:00 19.2 C 14.68 g/m*3 19.2 C 0 km/h
357 28-06-2020 05:40:00 19.1 C 14.59 g/m*3 19.1 C 1.6 km/h
358 28-06-2020 05:45:00 19.1 C 14.43 g/m*3 19.1 C 3.2 km/h
359 28-06-2020 05:50:00 19.1 C 14.43 g/m*3 19.1 C 1.6 km/h
360 28-06-2020 05:55:00 19.1 C 14.26 g/m*3 19.1 C 0 km/h
361 28-06-2020 06:00:00 19.1 C 14.26 g/m*3 19.1 C 3.2 km/h
362 28-06-2020 06:05:00 19.1 C 14.26 g/m*3 19.1 C 1.6 km/h
363 28-06-2020 06:10:00 19 C 14.01 g/m*3 19 C 8.1 km/h
364 28-06-2020 06:15:00 19 C 14.18 g/m*3 19 C 4.8 km/h
365 28-06-2020 06:20:00 19 C 14.01 g/m*3 19 C 4.8 km/h
366 28-06-2020 06:25:00 19.1 C 14.1 g/m*3 19.1 C 1.6 km/h
367 28-06-2020 06:30:00 19.1 C 14.26 g/m*3 19.1 C 1.6 km/h
368 28-06-2020 06:35:00 19.1 C 14.1 g/m*3 19.1 C 3.2 km/h
369 28-06-2020 06:40:00 19.2 C 14.18 g/m*3 19.2 C 1.6 km/h
370 28-06-2020 06:45:00 19.3 C 14.1 g/m*3 19.3 C 3.2 km/h
371 28-06-2020 06:50:00 19.3 C 14.1 g/m*3 19.3 C 1.6 km/h
372 28-06-2020 06:55:00 19.4 C 14.18 g/m*3 19.4 C 3.2 km/h
373 28-06-2020 07:00:00 19.5 C 14.1 g/m*3 19.5 C 0 km/h
374 28-06-2020 07:05:00 19.6 C 14.18 g/m*3 19.6 C 0 km/h
375 28-06-2020 07:10:00 19.7 C 14.09 g/m*3 19.7 C 8.1 km/h
Sensor: Nr:Datum:Temp:Abs-Feuchte:Windchill:Wind:
Aussen-T/F 376 28-06-2020 07:15:00 19.7 C 14.09 g/m*3 19.7 C 6.4 km/h
377 28-06-2020 07:20:00 19.8 C 14.01 g/m*3 19.8 C 4.8 km/h
378 28-06-2020 07:25:00 19.8 C 14.01 g/m*3 19.8 C 6.4 km/h
379 28-06-2020 07:30:00 19.9 C 13.57 g/m*3 19.9 C 8.1 km/h
380 28-06-2020 07:35:00 20.1 C 13.56 g/m*3 20.1 C 12.9 km/h
381 28-06-2020 07:40:00 20.2 C 13.64 g/m*3 20.2 C 12.9 km/h
382 28-06-2020 07:45:00 20.3 C 13.54 g/m*3 20.3 C 12.9 km/h
383 28-06-2020 07:50:00 20.3 C 13.54 g/m*3 20.3 C 9.7 km/h
384 28-06-2020 07:55:00 20.4 C 13.62 g/m*3 20.4 C 6.4 km/h
385 28-06-2020 08:00:00 20.5 C 13.52 g/m*3 20.5 C 12.9 km/h
386 28-06-2020 08:05:00 20.6 C 13.6 g/m*3 20.6 C 14.5 km/h
387 28-06-2020 08:10:00 20.6 C 13.78 g/m*3 20.6 C 8.1 km/h
388 28-06-2020 08:15:00 20.7 C 13.5 g/m*3 20.7 C 14.5 km/h
389 28-06-2020 08:20:00 20.7 C 13.5 g/m*3 20.7 C 16.1 km/h
390 28-06-2020 08:25:00 20.7 C 13.5 g/m*3 20.7 C 12.9 km/h
391 28-06-2020 08:30:00 20.6 C 13.42 g/m*3 20.6 C 11.3 km/h
392 28-06-2020 08:35:00 20.5 C 13.52 g/m*3 20.5 C 17.7 km/h
393 28-06-2020 08:40:00 20.6 C 13.6 g/m*3 20.6 C 14.5 km/h
394 28-06-2020 08:45:00 20.8 C 13.58 g/m*3 20.8 C 11.3 km/h
395 28-06-2020 08:50:00 20.8 C 13.4 g/m*3 20.8 C 12.9 km/h
396 28-06-2020 08:55:00 20.8 C 13.22 g/m*3 20.8 C 11.3 km/h
397 28-06-2020 09:00:00 20.7 C 13.14 g/m*3 20.7 C 17.7 km/h
398 28-06-2020 09:05:00 20.6 C 13.24 g/m*3 20.6 C 12.9 km/h
399 28-06-2020 09:10:00 20.5 C 12.63 g/m*3 20.5 C 16.1 km/h
400 28-06-2020 09:15:00 20.4 C 12.56 g/m*3 20.4 C 8.1 km/h
Sensor: Nr:Datum:Temp:Abs-Feuchte:Windchill:Wind:
Aussen-T/F 401 28-06-2020 09:20:00 20.3 C 12.14 g/m*3 20.3 C 14.5 km/h
402 28-06-2020 09:25:00 20.3 C 12.14 g/m*3 20.3 C 12.9 km/h
403 28-06-2020 09:30:00 20.3 C 11.96 g/m*3 20.3 C 19.3 km/h
404 28-06-2020 09:35:00 20.2 C 11.89 g/m*3 20.2 C 19.3 km/h
405 28-06-2020 09:40:00 20 C 11.58 g/m*3 20 C 11.3 km/h
406 28-06-2020 09:45:00 19.8 C 11.61 g/m*3 19.8 C 9.7 km/h
407 28-06-2020 09:50:00 19.8 C 11.44 g/m*3 19.8 C 8.1 km/h
408 28-06-2020 09:55:00 19.8 C 11.61 g/m*3 19.8 C 11.3 km/h
409 28-06-2020 10:00:00 19.8 C 11.44 g/m*3 19.8 C 16.1 km/h
410 28-06-2020 10:05:00 19.8 C 11.27 g/m*3 19.8 C 14.5 km/h
411 28-06-2020 10:10:00 19.8 C 11.44 g/m*3 19.8 C 12.9 km/h
412 28-06-2020 10:15:00 19.8 C 11.44 g/m*3 19.8 C 16.1 km/h
413 28-06-2020 10:20:00 19.9 C 11.68 g/m*3 19.9 C 17.7 km/h
414 28-06-2020 10:25:00 20.1 C 11.65 g/m*3 20.1 C 16.1 km/h
415 28-06-2020 10:30:00 20.1 C 11.65 g/m*3 20.1 C 11.3 km/h
416 28-06-2020 10:35:00 20.1 C 11.47 g/m*3 20.1 C 16.1 km/h
417 28-06-2020 10:40:00 19.9 C 11.68 g/m*3 19.9 C 11.3 km/h
418 28-06-2020 10:45:00 19.8 C 11.44 g/m*3 19.8 C 12.9 km/h
419 28-06-2020 10:50:00 19.8 C 11.61 g/m*3 19.8 C 12.9 km/h
420 28-06-2020 10:55:00 19.9 C 11.68 g/m*3 19.9 C 9.7 km/h
421 28-06-2020 11:00:00 20.1 C 11.82 g/m*3 20.1 C 4.8 km/h
422 28-06-2020 11:05:00 20.3 C 11.96 g/m*3 20.3 C 8.1 km/h
423 28-06-2020 11:10:00 20.3 C 11.78 g/m*3 20.3 C 9.7 km/h
424 28-06-2020 11:15:00 20.4 C 11.85 g/m*3 20.4 C 9.7 km/h
425 28-06-2020 11:20:00 20.4 C 12.03 g/m*3 20.4 C 6.4 km/h
Sensor: Nr:Datum:Temp:Abs-Feuchte:Windchill:Wind:
Aussen-T/F 426 28-06-2020 11:25:00 20.5 C 12.28 g/m*3 20.5 C 4.8 km/h
427 28-06-2020 11:30:00 20.6 C 11.81 g/m*3 20.6 C 11.3 km/h
428 28-06-2020 11:35:00 20.6 C 11.81 g/m*3 20.6 C 6.4 km/h
429 28-06-2020 11:40:00 20.6 C 11.99 g/m*3 20.6 C 14.5 km/h
430 28-06-2020 11:45:00 20.4 C 11.5 g/m*3 20.4 C 9.7 km/h
431 28-06-2020 11:50:00 20.4 C 11.5 g/m*3 20.4 C 8.1 km/h
432 28-06-2020 11:55:00 20.5 C 11.39 g/m*3 20.5 C 9.7 km/h
433 28-06-2020 12:00:00 20.7 C 11.34 g/m*3 20.7 C 9.7 km/h
434 28-06-2020 12:05:00 20.8 C 11.41 g/m*3 20.8 C 11.3 km/h
435 28-06-2020 12:10:00 20.8 C 11.41 g/m*3 20.8 C 8.1 km/h
436 28-06-2020 12:15:00 20.8 C 11.23 g/m*3 20.8 C 8.1 km/h
437 28-06-2020 12:20:00 20.7 C 10.98 g/m*3 20.7 C 11.3 km/h
438 28-06-2020 12:25:00 20.5 C 11.03 g/m*3 20.5 C 9.7 km/h
439 28-06-2020 12:30:00 20.4 C 10.97 g/m*3 20.4 C 6.4 km/h
440 28-06-2020 12:35:00 20.4 C 11.14 g/m*3 20.4 C 8.1 km/h
441 28-06-2020 12:40:00 20.4 C 11.32 g/m*3 20.4 C 9.7 km/h
442 28-06-2020 12:45:00 20.4 C 11.14 g/m*3 20.4 C 9.7 km/h
443 28-06-2020 12:50:00 20.4 C 11.14 g/m*3 20.4 C 8.1 km/h
444 28-06-2020 12:55:00 20.5 C 11.21 g/m*3 20.5 C 9.7 km/h
445 28-06-2020 13:00:00 20.8 C 11.23 g/m*3 20.8 C 9.7 km/h
446 28-06-2020 13:05:00 21.3 C 11 g/m*3 21.3 C 11.3 km/h
447 28-06-2020 13:10:00 21.7 C 10.87 g/m*3 21.7 C 16.1 km/h
448 28-06-2020 13:15:00 21.8 C 10.74 g/m*3 21.8 C 11.3 km/h
449 28-06-2020 13:20:00 21.9 C 11.19 g/m*3 21.9 C 16.1 km/h
450 28-06-2020 13:25:00 22.1 C 10.93 g/m*3 22.1 C 17.7 km/h
Sensor: Nr:Datum:Temp:Abs-Feuchte:Windchill:Wind:
Aussen-T/F 451 28-06-2020 13:30:00 22 C 11.06 g/m*3 22 C 12.9 km/h
452 28-06-2020 13:35:00 22 C 10.67 g/m*3 22 C 11.3 km/h
453 28-06-2020 13:40:00 22.1 C 11.13 g/m*3 22.1 C 12.9 km/h
454 28-06-2020 13:45:00 22.1 C 10.93 g/m*3 22.1 C 11.3 km/h
455 28-06-2020 13:50:00 22.1 C 10.93 g/m*3 22.1 C 14.5 km/h
456 28-06-2020 13:55:00 22.1 C 10.93 g/m*3 22.1 C 9.7 km/h
457 28-06-2020 14:00:00 22.1 C 11.52 g/m*3 22.1 C 9.7 km/h
458 28-06-2020 14:05:00 21.6 C 11.57 g/m*3 21.6 C 11.3 km/h
459 28-06-2020 14:10:00 21 C 11.36 g/m*3 21 C 11.3 km/h
460 28-06-2020 14:15:00 20.7 C 11.52 g/m*3 20.7 C 9.7 km/h
461 28-06-2020 14:20:00 20.4 C 11.32 g/m*3 20.4 C 9.7 km/h
462 28-06-2020 14:25:00 20.1 C 11.3 g/m*3 20.1 C 11.3 km/h
463 28-06-2020 14:30:00 19.8 C 11.44 g/m*3 19.8 C 16.1 km/h
464 28-06-2020 14:35:00 19.6 C 11.48 g/m*3 19.6 C 4.8 km/h
465 28-06-2020 14:40:00 19.4 C 11.35 g/m*3 19.4 C 9.7 km/h
466 28-06-2020 14:45:00 19.4 C 11.51 g/m*3 19.4 C 4.8 km/h
467 28-06-2020 14:50:00 19.4 C 11.51 g/m*3 19.4 C 3.2 km/h
468 28-06-2020 14:55:00 19.4 C 11.51 g/m*3 19.4 C 3.2 km/h
469 28-06-2020 15:00:00 19.4 C 11.51 g/m*3 19.4 C 4.8 km/h
470 28-06-2020 15:05:00 19.3 C 11.61 g/m*3 19.3 C 8.1 km/h
471 28-06-2020 15:10:00 19.3 C 11.61 g/m*3 19.3 C 4.8 km/h
472 28-06-2020 15:15:00 19.2 C 11.54 g/m*3 19.2 C 3.2 km/h
473 28-06-2020 15:20:00 19.2 C 11.54 g/m*3 19.2 C 6.4 km/h
474 28-06-2020 15:25:00 19.3 C 11.61 g/m*3 19.3 C 4.8 km/h
475 28-06-2020 15:30:00 19.4 C 11.35 g/m*3 19.4 C 11.3 km/h
Sensor: Nr:Datum:Temp:Abs-Feuchte:Windchill:Wind:
Aussen-T/F 476 28-06-2020 15:35:00 19.4 C 11.35 g/m*3 19.4 C 11.3 km/h
477 28-06-2020 15:40:00 19.6 C 11.65 g/m*3 19.6 C 4.8 km/h
478 28-06-2020 15:45:00 19.7 C 11.55 g/m*3 19.7 C 4.8 km/h
479 28-06-2020 15:50:00 19.8 C 11.27 g/m*3 19.8 C 6.4 km/h
480 28-06-2020 15:55:00 19.9 C 11.51 g/m*3 19.9 C 8.1 km/h
481 28-06-2020 16:00:00 20 C 11.58 g/m*3 20 C 6.4 km/h
482 28-06-2020 16:05:00 20.2 C 11.54 g/m*3 20.2 C 11.3 km/h
483 28-06-2020 16:10:00 20.3 C 11.61 g/m*3 20.3 C 9.7 km/h
484 28-06-2020 16:15:00 20.5 C 11.39 g/m*3 20.5 C 6.4 km/h
485 28-06-2020 16:20:00 20.6 C 11.28 g/m*3 20.6 C 14.5 km/h
486 28-06-2020 16:25:00 20.6 C 10.92 g/m*3 20.6 C 16.1 km/h
487 28-06-2020 16:30:00 20.6 C 10.92 g/m*3 20.6 C 14.5 km/h
488 28-06-2020 16:35:00 20.5 C 10.85 g/m*3 20.5 C 16.1 km/h
489 28-06-2020 16:40:00 20.5 C 11.03 g/m*3 20.5 C 12.9 km/h
490 28-06-2020 16:45:00 20.6 C 11.1 g/m*3 20.6 C 12.9 km/h
491 28-06-2020 16:50:00 20.6 C 11.1 g/m*3 20.6 C 12.9 km/h
492 28-06-2020 16:55:00 20.5 C 11.21 g/m*3 20.5 C 9.7 km/h
493 28-06-2020 17:00:00 20.6 C 11.28 g/m*3 20.6 C 8.1 km/h
494 28-06-2020 17:05:00 20.7 C 11.52 g/m*3 20.7 C 3.2 km/h
495 28-06-2020 17:10:00 20.8 C 11.23 g/m*3 20.8 C 8.1 km/h
496 28-06-2020 17:15:00 20.8 C 11.41 g/m*3 20.8 C 12.9 km/h
497 28-06-2020 17:20:00 20.8 C 11.23 g/m*3 20.8 C 4.8 km/h
498 28-06-2020 17:25:00 20.8 C 11.23 g/m*3 20.8 C 4.8 km/h
499 28-06-2020 17:30:00 20.7 C 10.98 g/m*3 20.7 C 14.5 km/h
500 28-06-2020 17:35:00 20.6 C 11.1 g/m*3 20.6 C 11.3 km/h
Sensor: Nr:Datum:Temp:Abs-Feuchte:Windchill:Wind:
Aussen-T/F 501 28-06-2020 17:40:00 20.6 C 11.1 g/m*3 20.6 C 9.7 km/h
502 28-06-2020 17:45:00 20.7 C 11.34 g/m*3 20.7 C 6.4 km/h
503 28-06-2020 17:50:00 20.7 C 10.98 g/m*3 20.7 C 9.7 km/h
504 28-06-2020 17:55:00 20.8 C 11.23 g/m*3 20.8 C 6.4 km/h
505 28-06-2020 18:00:00 20.8 C 11.05 g/m*3 20.8 C 11.3 km/h
506 28-06-2020 18:05:00 20.7 C 10.98 g/m*3 20.7 C 6.4 km/h
507 28-06-2020 18:10:00 20.7 C 11.16 g/m*3 20.7 C 6.4 km/h
508 28-06-2020 18:15:00 20.7 C 11.16 g/m*3 20.7 C 6.4 km/h
509 28-06-2020 18:20:00 20.7 C 10.98 g/m*3 20.7 C 11.3 km/h
510 28-06-2020 18:25:00 20.8 C 11.05 g/m*3 20.8 C 8.1 km/h
511 28-06-2020 18:30:00 20.8 C 11.05 g/m*3 20.8 C 9.7 km/h
512 28-06-2020 18:35:00 20.9 C 11.11 g/m*3 20.9 C 8.1 km/h
513 28-06-2020 18:40:00 21.1 C 11.42 g/m*3 21.1 C 8.1 km/h
514 28-06-2020 18:45:00 21.1 C 11.06 g/m*3 21.1 C 8.1 km/h
515 28-06-2020 18:50:00 21.2 C 11.3 g/m*3 21.2 C 8.1 km/h
516 28-06-2020 18:55:00 21.2 C 11.3 g/m*3 21.2 C 11.3 km/h
517 28-06-2020 19:00:00 21.1 C 11.06 g/m*3 21.1 C 8.1 km/h
518 28-06-2020 19:05:00 20.9 C 11.11 g/m*3 20.9 C 6.4 km/h
519 28-06-2020 19:10:00 20.7 C 10.98 g/m*3 20.7 C 4.8 km/h
520 28-06-2020 19:15:00 20.6 C 11.1 g/m*3 20.6 C 9.7 km/h
521 28-06-2020 19:20:00 20.5 C 11.21 g/m*3 20.5 C 4.8 km/h
522 28-06-2020 19:25:00 20.4 C 10.97 g/m*3 20.4 C 6.4 km/h
523 28-06-2020 19:30:00 20.3 C 11.26 g/m*3 20.3 C 1.6 km/h
524 28-06-2020 19:35:00 20.3 C 11.08 g/m*3 20.3 C 4.8 km/h
525 28-06-2020 19:40:00 20.2 C 11.02 g/m*3 20.2 C 8.1 km/h
Sensor: Nr:Datum:Temp:Abs-Feuchte:Windchill:Wind:
Aussen-T/F 526 28-06-2020 19:45:00 20.2 C 11.19 g/m*3 20.2 C 6.4 km/h
527 28-06-2020 19:50:00 20.2 C 11.37 g/m*3 20.2 C 4.8 km/h
528 28-06-2020 19:55:00 20.1 C 11.13 g/m*3 20.1 C 4.8 km/h
529 28-06-2020 20:00:00 20.1 C 11.13 g/m*3 20.1 C 6.4 km/h
530 28-06-2020 20:05:00 20 C 11.06 g/m*3 20 C 6.4 km/h
531 28-06-2020 20:10:00 19.9 C 11 g/m*3 19.9 C 6.4 km/h
532 28-06-2020 20:15:00 19.9 C 11.34 g/m*3 19.9 C 8.1 km/h
533 28-06-2020 20:20:00 19.9 C 11 g/m*3 19.9 C 6.4 km/h
534 28-06-2020 20:25:00 20 C 11.06 g/m*3 20 C 1.6 km/h
535 28-06-2020 20:30:00 20.3 C 11.26 g/m*3 20.3 C 8.1 km/h
536 28-06-2020 20:35:00 20.4 C 11.5 g/m*3 20.4 C 4.8 km/h
537 28-06-2020 20:40:00 20.4 C 11.14 g/m*3 20.4 C 11.3 km/h
538 28-06-2020 20:45:00 20.4 C 11.14 g/m*3 20.4 C 11.3 km/h
539 28-06-2020 20:50:00 20.4 C 11.14 g/m*3 20.4 C 4.8 km/h
540 28-06-2020 20:55:00 20.4 C 11.32 g/m*3 20.4 C 8.1 km/h
541 28-06-2020 21:00:00 20.3 C 11.26 g/m*3 20.3 C 3.2 km/h
542 28-06-2020 21:05:00 20.2 C 11.19 g/m*3 20.2 C 6.4 km/h
543 28-06-2020 21:10:00 20.1 C 11.13 g/m*3 20.1 C 8.1 km/h
544 28-06-2020 21:15:00 19.8 C 11.1 g/m*3 19.8 C 8.1 km/h
545 28-06-2020 21:20:00 19.7 C 11.21 g/m*3 19.7 C 9.7 km/h
546 28-06-2020 21:25:00 19.6 C 11.31 g/m*3 19.6 C 3.2 km/h
547 28-06-2020 21:30:00 19.4 C 11.35 g/m*3 19.4 C 4.8 km/h
548 28-06-2020 21:35:00 19.2 C 11.21 g/m*3 19.2 C 3.2 km/h
549 28-06-2020 21:40:00 19.1 C 11.31 g/m*3 19.1 C 3.2 km/h
550 28-06-2020 21:45:00 18.8 C 11.11 g/m*3 18.8 C 3.2 km/h
Sensor: Nr:Datum:Temp:Abs-Feuchte:Windchill:Wind:
Aussen-T/F 551 28-06-2020 21:50:00 18.6 C 11.14 g/m*3 18.6 C 3.2 km/h
552 28-06-2020 21:55:00 18.4 C 11.17 g/m*3 18.4 C 4.8 km/h
553 28-06-2020 22:00:00 18.2 C 11.19 g/m*3 18.2 C 3.2 km/h
554 28-06-2020 22:05:00 17.9 C 10.99 g/m*3 17.9 C 4.8 km/h
555 28-06-2020 22:10:00 17.7 C 11.01 g/m*3 17.7 C 0 km/h
556 28-06-2020 22:15:00 17.4 C 10.82 g/m*3 17.4 C 4.8 km/h
557 28-06-2020 22:20:00 17.3 C 10.9 g/m*3 17.3 C 1.6 km/h
558 28-06-2020 22:25:00 17.1 C 10.92 g/m*3 17.1 C 1.6 km/h
559 28-06-2020 22:30:00 16.8 C 10.87 g/m*3 16.8 C 0 km/h
560 28-06-2020 22:35:00 16.7 C 10.8 g/m*3 16.7 C 0 km/h
561 28-06-2020 22:40:00 16.4 C 10.75 g/m*3 16.4 C 6.4 km/h
562 28-06-2020 22:45:00 16.2 C 10.76 g/m*3 16.2 C 4.8 km/h
563 28-06-2020 22:50:00 16.1 C 10.83 g/m*3 16.1 C 6.4 km/h
564 28-06-2020 22:55:00 15.9 C 10.83 g/m*3 15.9 C 4.8 km/h
565 28-06-2020 23:00:00 15.8 C 10.77 g/m*3 15.8 C 4.8 km/h
566 28-06-2020 23:05:00 15.7 C 10.7 g/m*3 15.7 C 6.4 km/h
567 28-06-2020 23:10:00 15.7 C 10.84 g/m*3 15.7 C 3.2 km/h
568 28-06-2020 23:15:00 15.6 C 10.77 g/m*3 15.6 C 3.2 km/h
569 28-06-2020 23:20:00 15.5 C 10.71 g/m*3 15.5 C 3.2 km/h
570 28-06-2020 23:25:00 15.4 C 10.77 g/m*3 15.4 C 4.8 km/h
571 28-06-2020 23:30:00 15.3 C 10.71 g/m*3 15.3 C 4.8 km/h
572 28-06-2020 23:35:00 15.3 C 10.71 g/m*3 15.3 C 4.8 km/h
573 28-06-2020 23:40:00 15.3 C 10.84 g/m*3 15.3 C 3.2 km/h
574 28-06-2020 23:45:00 15.2 C 10.77 g/m*3 15.2 C 3.2 km/h
575 28-06-2020 23:50:00 15.2 C 10.77 g/m*3 15.2 C 4.8 km/h
Sensor: Nr:Datum:Temp:Abs-Feuchte:Windchill:Wind:
Aussen-T/F 576 28-06-2020 23:55:00 15.1 C 10.71 g/m*3 15.1 C 4.8 km/h

Legende:
   Min
   Max


Maximal/Minimal-Werte vom 27.06.2020 - 28.06.2020

Sensor Min Max Avg
Temp
(Aussen-T/F)
15.1 °C
28-06-2020  23:55:00
29.8 °C
27-06-2020  17:05:00
21.28 °C
Abs-Feuchte
(Aussen-T/F)
10.67 g/m*3
28-06-2020  13:35:00
15.83 g/m*3
27-06-2020  13:55:00
13.33 g/m*3
Windchill
(Aussen-T/F)
15.1 C
28-06-2020  23:55:00
29.8 C
27-06-2020  17:05:00
21.24 C

Die Daten stammen von einer Davis Vantage Pro 2 Wetter-Station und werden unter Linux mit der Software wview2wettercgi und aufbereitet. Alle Angaben erfolgen ohne Gewähr für ihre Vollständigkeit oder Richtigkeit.
Kontakt: Rainer Krienke krienke@uni-koblenz.de . Meine Webseiten an der Uni Koblenz oder privat.
Version: $Revision: 0.78 $